Terminal Aerodrome Forecast
Issued by NWS

Home | Current Version | Previous Version | Text Only | Print | Product List | Glossary On
Versions: 1 2 3 4 5 6 7 8 9 10 11 12 13 14 15 16 17 18 19 20 21 22 23 24 25 26
000
FTUS45 KGJT 011130
TAFVEL
TAF
KVEL 011130Z 0112/0212 VRB05KT P6SM SCT250
     FM011400 13005KT P6SM SCT100 BKN150
     FM011900 08004KT P6SM SCT090 SCT140
     FM020200 02005KT P6SM FEW100 BKN200=

USA.gov is the U.S. government's official web portal to all federal, state and local government web resources and services.